Time,TemperatureF,DewpointF,PressureIn,WindDirection,WindDirectionDegrees,WindSpeedMPH,WindSpeedGustMPH,Humidity,HourlyPrecipIn,Conditions,Clouds,dailyrainin,SoftwareType,DateUTC
2013-02-24 00:00:00,38.9,38.1,29.82,East,84,6.0,7.0,97,0.00,,,0.00,Wunderground v.1.15,2013-02-24 05:00:00,
2013-02-24 00:01:00,38.9,38.1,29.82,ESE,122,6.0,7.0,97,0.00,,,0.00,Wunderground v.1.15,2013-02-24 05:01:00,
2013-02-24 00:02:00,39.0,38.2,29.82,ENE,63,6.0,7.0,97,0.00,,,0.00,Wunderground v.1.15,2013-02-24 05:02:00,
2013-02-24 00:07:00,39.0,38.2,29.82,East,92,5.0,10.0,97,0.00,,,0.01,Wunderground v.1.15,2013-02-24 05:07:00,
2013-02-24 00:12:00,39.1,38.3,29.82,ESE,111,5.0,9.0,97,0.00,,,0.01,Wunderground v.1.15,2013-02-24 05:12:00,
2013-02-24 00:14:00,39.2,38.4,29.82,ENE,71,4.0,9.0,97,0.00,,,0.01,Wunderground v.1.15,2013-02-24 05:14:00,
2013-02-24 00:20:00,39.2,38.4,29.82,ESE,115,4.0,4.0,97,0.06,,,0.02,Wunderground v.1.15,2013-02-24 05:20:00,
2013-02-24 00:26:00,39.3,38.8,29.82,ESE,107,3.0,7.0,98,0.06,,,0.03,Wunderground v.1.15,2013-02-24 05:26:00,
2013-02-24 00:31:00,39.5,39.0,29.82,ESE,113,4.0,4.0,98,0.06,,,0.03,Wunderground v.1.15,2013-02-24 05:31:00,
2013-02-24 00:36:00,39.6,39.1,29.82,East,88,5.0,11.0,98,0.08,,,0.04,Wunderground v.1.15,2013-02-24 05:36:00,
2013-02-24 00:42:00,39.7,39.2,29.81,ENE,61,5.0,9.0,98,0.06,,,0.04,Wunderground v.1.15,2013-02-24 05:42:00,
2013-02-24 00:47:00,39.8,39.3,29.81,SE,141,4.0,9.0,98,0.05,,,0.05,Wunderground v.1.15,2013-02-24 05:47:00,
2013-02-24 00:53:00,39.9,39.4,29.81,SSE,149,4.0,5.0,98,0.05,,,0.05,Wunderground v.1.15,2013-02-24 05:53:00,
2013-02-24 00:58:00,40.0,39.5,29.80,ENE,64,4.0,5.0,98,0.07,,,0.06,Wunderground v.1.15,2013-02-24 05:58:00,
2013-02-24 01:03:00,40.1,39.6,29.80,ENE,58,4.0,10.0,98,0.07,,,0.07,Wunderground v.1.15,2013-02-24 06:03:00,
2013-02-24 01:09:00,40.3,39.8,29.80,East,96,6.0,13.0,98,0.07,,,0.07,Wunderground v.1.15,2013-02-24 06:09:00,
2013-02-24 01:14:00,40.4,39.9,29.80,East,89,6.0,13.0,98,0.07,,,0.08,Wunderground v.1.15,2013-02-24 06:14:00,
2013-02-24 01:20:00,40.4,39.9,29.79,NE,54,7.0,7.0,98,0.07,,,0.09,Wunderground v.1.15,2013-02-24 06:20:00,
2013-02-24 01:25:00,40.5,40.0,29.79,ENE,74,6.0,12.0,98,0.07,,,0.09,Wunderground v.1.15,2013-02-24 06:25:00,
2013-02-24 01:31:00,40.5,40.0,29.79,ENE,69,6.0,19.0,98,0.06,,,0.10,Wunderground v.1.15,2013-02-24 06:31:00,
2013-02-24 01:36:00,40.7,40.2,29.79,ESE,106,7.0,19.0,98,0.06,,,0.10,Wunderground v.1.15,2013-02-24 06:36:00,
2013-02-24 01:41:00,40.7,40.2,29.78,ESE,107,6.0,8.0,98,0.07,,,0.11,Wunderground v.1.15,2013-02-24 06:41:00,
2013-02-24 01:47:00,40.9,40.4,29.78,ENE,78,6.0,17.0,98,0.07,,,0.11,Wunderground v.1.15,2013-02-24 06:47:00,
2013-02-24 01:52:00,41.0,40.5,29.78,NNE,32,6.0,7.0,98,0.04,,,0.11,Wunderground v.1.15,2013-02-24 06:52:00,
2013-02-24 01:57:00,41.0,40.5,29.77,ESE,105,5.0,7.0,98,0.00,,,0.11,Wunderground v.1.15,2013-02-24 06:57:00,
2013-02-24 02:03:00,41.1,40.6,29.77,SE,133,4.0,6.0,98,0.00,,,0.12,Wunderground v.1.15,2013-02-24 07:03:00,
2013-02-24 02:09:00,41.3,40.8,29.76,ENE,71,4.0,6.0,98,0.00,,,0.12,Wunderground v.1.15,2013-02-24 07:09:00,
2013-02-24 02:15:00,41.5,41.0,29.75,East,96,5.0,7.0,98,0.00,,,0.12,Wunderground v.1.15,2013-02-24 07:15:00,
2013-02-24 02:21:00,41.7,41.2,29.75,ENE,70,5.0,5.0,98,0.00,,,0.12,Wunderground v.1.15,2013-02-24 07:21:00,
2013-02-24 02:26:00,41.8,41.3,29.75,ENE,61,5.0,8.0,98,0.00,,,0.12,Wunderground v.1.15,2013-02-24 07:26:00,
2013-02-24 02:32:00,41.8,41.3,29.74,ENE,61,4.0,7.0,98,0.16,,,0.14,Wunderground v.1.15,2013-02-24 07:32:00,
2013-02-24 02:37:00,41.8,41.3,29.74,East,84,4.0,11.0,98,0.09,,,0.14,Wunderground v.1.15,2013-02-24 07:37:00,
2013-02-24 02:42:00,41.8,41.3,29.73,ESE,102,4.0,5.0,98,0.07,,,0.15,Wunderground v.1.15,2013-02-24 07:42:00,
2013-02-24 02:48:00,41.9,41.4,29.73,ENE,65,4.0,12.0,98,0.08,,,0.16,Wunderground v.1.15,2013-02-24 07:48:00,
2013-02-24 02:53:00,41.9,41.4,29.73,East,84,4.0,11.0,98,0.08,,,0.16,Wunderground v.1.15,2013-02-24 07:53:00,
2013-02-24 02:59:00,41.8,41.3,29.72,East,98,4.0,11.0,98,0.06,,,0.17,Wunderground v.1.15,2013-02-24 07:59:00,
2013-02-24 03:04:00,41.8,41.3,29.72,NE,49,4.0,9.0,98,0.11,,,0.18,Wunderground v.1.15,2013-02-24 08:04:00,
2013-02-24 03:10:00,41.8,41.3,29.71,East,84,4.0,8.0,98,0.08,,,0.18,Wunderground v.1.15,2013-02-24 08:10:00,
2013-02-24 03:15:00,41.8,41.3,29.71,ESE,105,4.0,8.0,98,0.05,,,0.18,Wunderground v.1.15,2013-02-24 08:15:00,
2013-02-24 03:21:00,41.9,41.4,29.71,NNE,17,4.0,7.0,98,0.00,,,0.18,Wunderground v.1.15,2013-02-24 08:21:00,
2013-02-24 03:26:00,42.0,41.5,29.70,East,84,3.0,7.0,98,0.00,,,0.19,Wunderground v.1.15,2013-02-24 08:26:00,
2013-02-24 03:31:00,42.0,41.5,29.70,ENE,68,3.0,8.0,98,0.00,,,0.19,Wunderground v.1.15,2013-02-24 08:31:00,
2013-02-24 03:37:00,42.2,41.7,29.70,SE,131,4.0,8.0,98,0.00,,,0.19,Wunderground v.1.15,2013-02-24 08:37:00,
2013-02-24 03:43:00,42.2,41.7,29.70,NNE,27,3.0,10.0,98,0.04,,,0.20,Wunderground v.1.15,2013-02-24 08:43:00,
2013-02-24 03:48:00,42.3,41.8,29.70,NE,52,3.0,10.0,98,0.04,,,0.20,Wunderground v.1.15,2013-02-24 08:48:00,
2013-02-24 03:54:00,42.4,41.9,29.69,SE,131,3.0,7.0,98,0.05,,,0.21,Wunderground v.1.15,2013-02-24 08:54:00,
2013-02-24 03:59:00,42.5,42.0,29.69,SE,132,4.0,7.0,98,0.05,,,0.21,Wunderground v.1.15,2013-02-24 08:59:00,
2013-02-24 04:05:00,42.6,42.1,29.69,East,100,4.0,9.0,98,0.04,,,0.21,Wunderground v.1.15,2013-02-24 09:05:00,
2013-02-24 04:11:00,42.7,42.2,29.69,East,97,4.0,8.0,98,0.04,,,0.22,Wunderground v.1.15,2013-02-24 09:11:00,
2013-02-24 04:16:00,42.7,42.2,29.69,East,86,3.0,8.0,98,0.04,,,0.22,Wunderground v.1.15,2013-02-24 09:16:00,
2013-02-24 04:21:00,42.8,42.3,29.68,ENE,76,4.0,4.0,98,0.04,,,0.22,Wunderground v.1.15,2013-02-24 09:21:00,
2013-02-24 04:27:00,42.8,42.3,29.69,ENE,76,3.0,7.0,98,0.00,,,0.22,Wunderground v.1.15,2013-02-24 09:27:00,
2013-02-24 04:32:00,42.9,42.4,29.68,East,80,4.0,5.0,98,0.00,,,0.23,Wunderground v.1.15,2013-02-24 09:32:00,
2013-02-24 04:38:00,42.9,42.4,29.68,East,98,5.0,8.0,98,0.00,,,0.23,Wunderground v.1.15,2013-02-24 09:38:00,
2013-02-24 04:44:00,42.9,42.4,29.68,ENE,62,5.0,7.0,98,0.00,,,0.23,Wunderground v.1.15,2013-02-24 09:44:00,
2013-02-24 04:49:00,43.0,42.5,29.68,ESE,115,5.0,10.0,98,0.00,,,0.24,Wunderground v.1.15,2013-02-24 09:49:00,
2013-02-24 04:55:00,43.0,42.5,29.67,East,81,6.0,14.0,98,0.07,,,0.25,Wunderground v.1.15,2013-02-24 09:55:00,
2013-02-24 05:00:00,43.0,42.5,29.67,ENE,59,5.0,8.0,98,0.20,,,0.26,Wunderground v.1.15,2013-02-24 10:00:00,
2013-02-24 05:05:00,43.0,42.5,29.67,East,89,5.0,8.0,98,0.08,,,0.26,Wunderground v.1.15,2013-02-24 10:05:00,
2013-02-24 05:11:00,43.0,42.5,29.67,ENE,59,5.0,7.0,98,0.07,,,0.27,Wunderground v.1.15,2013-02-24 10:11:00,
2013-02-24 05:16:00,43.1,42.6,29.67,NE,46,6.0,12.0,98,0.06,,,0.27,Wunderground v.1.15,2013-02-24 10:16:00,
2013-02-24 05:22:00,43.1,42.6,29.66,ESE,111,7.0,12.0,98,0.04,,,0.27,Wunderground v.1.15,2013-02-24 10:22:00,
2013-02-24 05:27:00,43.2,42.7,29.66,East,96,6.0,12.0,98,0.04,,,0.28,Wunderground v.1.15,2013-02-24 10:27:00,
2013-02-24 05:33:00,43.2,42.7,29.67,ENE,72,6.0,8.0,98,0.04,,,0.28,Wunderground v.1.15,2013-02-24 10:33:00,
2013-02-24 05:39:00,43.2,42.7,29.67,East,90,5.0,10.0,98,0.04,,,0.28,Wunderground v.1.15,2013-02-24 10:39:00,
2013-02-24 05:44:00,43.2,42.7,29.67,East,98,5.0,8.0,98,0.00,,,0.28,Wunderground v.1.15,2013-02-24 10:44:00,
2013-02-24 05:50:00,43.2,42.7,29.67,East,99,5.0,5.0,98,0.00,,,0.29,Wunderground v.1.15,2013-02-24 10:50:00,
2013-02-24 05:55:00,43.2,42.7,29.68,ENE,65,4.0,5.0,98,0.00,,,0.29,Wunderground v.1.15,2013-02-24 10:55:00,
2013-02-24 06:01:00,43.2,42.7,29.68,East,98,5.0,5.0,98,0.00,,,0.29,Wunderground v.1.15,2013-02-24 11:01:00,
2013-02-24 06:07:00,43.2,42.7,29.68,ENE,70,4.0,6.0,98,0.04,,,0.30,Wunderground v.1.15,2013-02-24 11:07:00,
2013-02-24 06:12:00,43.2,42.7,29.69,South,172,4.0,8.0,98,0.04,,,0.30,Wunderground v.1.15,2013-02-24 11:12:00,
2013-02-24 06:17:00,43.2,42.7,29.69,East,92,3.0,8.0,98,0.05,,,0.31,Wunderground v.1.15,2013-02-24 11:17:00,
2013-02-24 06:23:00,43.2,42.7,29.69,NNE,28,2.0,5.0,98,0.10,,,0.32,Wunderground v.1.15,2013-02-24 11:23:00,
2013-02-24 06:29:00,43.2,42.7,29.69,East,85,3.0,5.0,98,0.10,,,0.33,Wunderground v.1.15,2013-02-24 11:29:00,
2013-02-24 06:34:00,43.2,42.7,29.69,East,96,3.0,4.0,98,0.15,,,0.34,Wunderground v.1.15,2013-02-24 11:34:00,
2013-02-24 06:39:00,43.2,42.7,29.68,East,90,2.0,4.0,98,0.13,,,0.35,Wunderground v.1.15,2013-02-24 11:39:00,
2013-02-24 06:44:00,43.2,42.7,29.68,NE,53,3.0,8.0,98,0.12,,,0.36,Wunderground v.1.15,2013-02-24 11:44:00,
2013-02-24 06:50:00,43.3,42.8,29.68,East,97,4.0,4.0,98,0.08,,,0.37,Wunderground v.1.15,2013-02-24 11:50:00,
2013-02-24 06:55:00,43.3,42.8,29.67,ENE,66,3.0,4.0,98,0.13,,,0.38,Wunderground v.1.15,2013-02-24 11:55:00,
2013-02-24 07:01:00,43.3,42.8,29.67,NE,51,3.0,3.0,98,0.07,,,0.38,Wunderground v.1.15,2013-02-24 12:01:00,
2013-02-24 07:06:00,43.3,42.8,29.67,ENE,71,2.0,4.0,98,0.05,,,0.39,Wunderground v.1.15,2013-02-24 12:06:00,
2013-02-24 07:11:00,43.3,42.8,29.66,NE,53,2.0,4.0,98,0.05,,,0.39,Wunderground v.1.15,2013-02-24 12:11:00,
2013-02-24 07:17:00,43.4,42.9,29.67,ENE,77,3.0,4.0,98,0.05,,,0.39,Wunderground v.1.15,2013-02-24 12:17:00,
2013-02-24 07:22:00,43.4,42.9,29.67,NE,55,3.0,6.0,98,0.00,,,0.39,Wunderground v.1.15,2013-02-24 12:22:00,
2013-02-24 07:28:00,43.4,42.9,29.67,NE,37,2.0,6.0,98,0.00,,,0.40,Wunderground v.1.15,2013-02-24 12:28:00,
2013-02-24 07:33:00,43.3,42.8,29.67,East,86,2.0,2.0,98,0.00,,,0.40,Wunderground v.1.15,2013-02-24 12:33:00,
2013-02-24 07:38:00,43.2,42.7,29.67,NE,44,2.0,3.0,98,0.00,,,0.40,Wunderground v.1.15,2013-02-24 12:38:00,
2013-02-24 07:44:00,43.0,42.5,29.66,ENE,58,2.0,2.0,98,0.00,,,0.40,Wunderground v.1.15,2013-02-24 12:44:00,
2013-02-24 07:49:00,42.7,41.9,29.66,NW,317,2.0,4.0,97,0.00,,,0.40,Wunderground v.1.15,2013-02-24 12:49:00,
2013-02-24 07:55:00,42.5,41.7,29.66,NNE,24,2.0,2.0,97,0.00,,,0.41,Wunderground v.1.15,2013-02-24 12:55:00,
2013-02-24 08:00:00,42.4,41.6,29.66,NW,320,2.0,2.0,97,0.15,,,0.42,Wunderground v.1.15,2013-02-24 13:00:00,
2013-02-24 08:06:00,42.4,41.9,29.65,NE,49,3.0,6.0,98,0.08,,,0.43,Wunderground v.1.15,2013-02-24 13:06:00,
2013-02-24 08:12:00,42.5,42.0,29.64,WNW,289,2.0,6.0,98,0.07,,,0.43,Wunderground v.1.15,2013-02-24 13:12:00,
2013-02-24 08:17:00,42.5,42.0,29.64,ENE,72,2.0,6.0,98,0.05,,,0.44,Wunderground v.1.15,2013-02-24 13:17:00,
2013-02-24 08:23:00,42.6,42.1,29.64,ENE,60,3.0,7.0,98,0.05,,,0.44,Wunderground v.1.15,2013-02-24 13:23:00,
2013-02-24 08:28:00,42.7,42.2,29.63,North,355,3.0,11.0,98,0.05,,,0.44,Wunderground v.1.15,2013-02-24 13:28:00,
2013-02-24 08:33:00,42.7,42.2,29.62,NE,49,3.0,7.0,98,0.00,,,0.44,Wunderground v.1.15,2013-02-24 13:33:00,
2013-02-24 08:39:00,42.8,42.3,29.62,East,100,3.0,11.0,98,0.00,,,0.44,Wunderground v.1.15,2013-02-24 13:39:00,
2013-02-24 08:44:00,42.9,42.4,29.62,NE,34,3.0,13.0,98,0.00,,,0.44,Wunderground v.1.15,2013-02-24 13:44:00,
2013-02-24 08:50:00,43.0,42.5,29.62,East,82,3.0,3.0,98,0.00,,,0.44,Wunderground v.1.15,2013-02-24 13:50:00,
2013-02-24 08:55:00,43.0,42.5,29.62,North,360,3.0,6.0,98,0.00,,,0.44,Wunderground v.1.15,2013-02-24 13:55:00,
2013-02-24 09:01:00,43.1,42.6,29.62,ESE,115,3.0,3.0,98,0.00,,,0.44,Wunderground v.1.15,2013-02-24 14:01:00,
2013-02-24 09:06:00,43.1,42.6,29.63,NNE,33,3.0,7.0,98,0.00,,,0.44,Wunderground v.1.15,2013-02-24 14:06:00,
2013-02-24 09:12:00,43.2,42.7,29.62,NE,55,3.0,4.0,98,0.00,,,0.44,Wunderground v.1.15,2013-02-24 14:12:00,
2013-02-24 09:17:00,43.3,42.8,29.62,ENE,68,3.0,11.0,98,0.00,,,0.44,Wunderground v.1.15,2013-02-24 14:17:00,
2013-02-24 09:23:00,43.4,42.9,29.61,NW,312,3.0,3.0,98,0.00,,,0.45,Wunderground v.1.15,2013-02-24 14:23:00,
2013-02-24 09:28:00,43.4,42.9,29.61,East,90,3.0,11.0,98,0.00,,,0.45,Wunderground v.1.15,2013-02-24 14:28:00,
2013-02-24 09:33:00,43.4,42.9,29.60,North,355,3.0,4.0,98,0.05,,,0.46,Wunderground v.1.15,2013-02-24 14:33:00,
2013-02-24 09:39:00,43.5,43.0,29.60,SSE,148,2.0,5.0,98,0.05,,,0.46,Wunderground v.1.15,2013-02-24 14:39:00,
2013-02-24 09:44:00,43.5,43.0,29.59,ENE,63,3.0,13.0,98,0.05,,,0.46,Wunderground v.1.15,2013-02-24 14:44:00,
2013-02-24 09:50:00,43.6,43.1,29.59,NE,54,3.0,6.0,98,0.00,,,0.46,Wunderground v.1.15,2013-02-24 14:50:00,
2013-02-24 09:55:00,43.6,43.1,29.59,NNE,26,3.0,11.0,98,0.00,,,0.46,Wunderground v.1.15,2013-02-24 14:55:00,
2013-02-24 10:01:00,43.5,43.0,29.59,WNW,302,3.0,4.0,98,0.00,,,0.46,Wunderground v.1.15,2013-02-24 15:01:00,
2013-02-24 10:07:00,43.6,43.1,29.59,North,11,3.0,4.0,98,0.00,,,0.47,Wunderground v.1.15,2013-02-24 15:07:00,
2013-02-24 10:12:00,43.6,43.1,29.60,SSE,150,2.0,2.0,98,0.00,,,0.47,Wunderground v.1.15,2013-02-24 15:12:00,
2013-02-24 10:18:00,43.5,43.0,29.59,NW,320,3.0,7.0,98,0.00,,,0.47,Wunderground v.1.15,2013-02-24 15:18:00,
2013-02-24 10:24:00,43.4,42.9,29.60,NNE,15,3.0,4.0,98,0.00,,,0.47,Wunderground v.1.15,2013-02-24 15:24:00,
2013-02-24 10:30:00,43.4,42.9,29.60,NE,52,2.0,2.0,98,0.00,,,0.47,Wunderground v.1.15,2013-02-24 15:30:00,
2013-02-24 10:35:00,43.3,42.8,29.60,ENE,69,2.0,6.0,98,0.00,,,0.47,Wunderground v.1.15,2013-02-24 15:35:00,
2013-02-24 10:40:00,43.2,42.7,29.59,NE,53,3.0,3.0,98,0.00,,,0.47,Wunderground v.1.15,2013-02-24 15:40:00,
2013-02-24 10:46:00,43.1,42.6,29.59,NNE,27,2.0,6.0,98,0.00,,,0.47,Wunderground v.1.15,2013-02-24 15:46:00,
2013-02-24 10:51:00,43.1,42.6,29.59,NNE,28,2.0,2.0,98,0.00,,,0.48,Wunderground v.1.15,2013-02-24 15:51:00,
2013-02-24 10:57:00,43.1,42.6,29.60,North,355,2.0,5.0,98,0.00,,,0.48,Wunderground v.1.15,2013-02-24 15:57:00,
2013-02-24 11:02:00,43.1,42.6,29.60,North,355,2.0,2.0,98,0.00,,,0.48,Wunderground v.1.15,2013-02-24 16:02:00,
2013-02-24 11:08:00,43.1,42.6,29.60,NW,321,2.0,2.0,98,0.00,,,0.48,Wunderground v.1.15,2013-02-24 16:08:00,
2013-02-24 11:14:00,43.2,42.7,29.60,WNW,288,2.0,3.0,98,0.00,,,0.48,Wunderground v.1.15,2013-02-24 16:14:00,
2013-02-24 11:19:00,43.2,42.7,29.59,NNE,18,2.0,5.0,98,0.00,,,0.49,Wunderground v.1.15,2013-02-24 16:19:00,
2013-02-24 11:25:00,43.2,42.7,29.59,NW,316,2.0,8.0,98,0.00,,,0.49,Wunderground v.1.15,2013-02-24 16:25:00,
2013-02-24 11:30:00,43.3,42.8,29.59,NE,42,2.0,10.0,98,0.04,,,0.50,Wunderground v.1.15,2013-02-24 16:30:00,
2013-02-24 11:35:00,43.3,42.8,29.59,NNW,331,1.0,10.0,98,0.04,,,0.50,Wunderground v.1.15,2013-02-24 16:35:00,
2013-02-24 11:41:00,43.2,42.7,29.59,NNW,344,2.0,5.0,98,0.04,,,0.50,Wunderground v.1.15,2013-02-24 16:41:00,
2013-02-24 11:46:00,43.0,42.5,29.59,WNW,288,3.0,5.0,98,0.04,,,0.51,Wunderground v.1.15,2013-02-24 16:46:00,
2013-02-24 11:51:00,42.8,42.3,29.59,NW,309,2.0,2.0,98,0.04,,,0.51,Wunderground v.1.15,2013-02-24 16:51:00,
2013-02-24 11:57:00,42.6,41.8,29.59,NNW,331,3.0,5.0,97,0.06,,,0.52,Wunderground v.1.15,2013-02-24 16:57:00,
2013-02-24 12:03:00,42.5,42.0,29.59,WNW,302,3.0,6.0,98,0.08,,,0.53,Wunderground v.1.15,2013-02-24 17:03:00,
2013-02-24 12:09:00,42.4,41.9,29.59,WNW,290,3.0,9.0,98,0.10,,,0.54,Wunderground v.1.15,2013-02-24 17:09:00,
2013-02-24 12:14:00,42.4,41.9,29.59,WNW,283,4.0,7.0,98,0.10,,,0.54,Wunderground v.1.15,2013-02-24 17:14:00,
2013-02-24 12:20:00,42.3,41.8,29.59,WNW,290,4.0,4.0,98,0.06,,,0.55,Wunderground v.1.15,2013-02-24 17:20:00,
2013-02-24 12:25:00,42.1,41.6,29.59,NNW,343,3.0,6.0,98,0.06,,,0.55,Wunderground v.1.15,2013-02-24 17:25:00,
2013-02-24 12:31:00,42.0,41.2,29.59,NNW,331,3.0,3.0,97,0.07,,,0.56,Wunderground v.1.15,2013-02-24 17:31:00,
2013-02-24 12:36:00,41.9,41.4,29.59,NW,320,3.0,6.0,98,0.07,,,0.56,Wunderground v.1.15,2013-02-24 17:36:00,
2013-02-24 12:41:00,41.8,41.3,29.59,NW,317,3.0,5.0,98,0.04,,,0.56,Wunderground v.1.15,2013-02-24 17:41:00,
2013-02-24 12:47:00,41.7,41.2,29.60,WNW,299,5.0,7.0,98,0.00,,,0.56,Wunderground v.1.15,2013-02-24 17:47:00,
2013-02-24 12:52:00,41.6,41.1,29.60,WNW,292,5.0,5.0,98,0.00,,,0.56,Wunderground v.1.15,2013-02-24 17:52:00,
2013-02-24 12:57:00,41.5,41.0,29.60,NW,319,4.0,5.0,98,0.00,,,0.57,Wunderground v.1.15,2013-02-24 17:57:00,
2013-02-24 13:03:00,41.4,40.6,29.60,West,270,3.0,8.0,97,0.07,,,0.58,Wunderground v.1.15,2013-02-24 18:03:00,
2013-02-24 13:09:00,41.3,40.5,29.60,West,279,4.0,10.0,97,0.07,,,0.58,Wunderground v.1.15,2013-02-24 18:09:00,
2013-02-24 13:15:00,41.1,40.6,29.60,West,262,4.0,7.0,98,0.06,,,0.59,Wunderground v.1.15,2013-02-24 18:15:00,
2013-02-24 13:21:00,41.0,40.2,29.59,NNE,22,3.0,6.0,97,0.14,,,0.61,Wunderground v.1.15,2013-02-24 18:21:00,
2013-02-24 13:26:00,40.9,40.4,29.60,NNW,348,3.0,6.0,98,0.18,,,0.62,Wunderground v.1.15,2013-02-24 18:26:00,
2013-02-24 13:32:00,40.9,40.4,29.60,WNW,289,3.0,3.0,98,0.13,,,0.63,Wunderground v.1.15,2013-02-24 18:32:00,
2013-02-24 13:38:00,40.8,40.3,29.60,NW,308,3.0,6.0,98,0.10,,,0.64,Wunderground v.1.15,2013-02-24 18:38:00,
2013-02-24 13:43:00,40.7,40.2,29.60,West,275,4.0,7.0,98,0.06,,,0.64,Wunderground v.1.15,2013-02-24 18:43:00,
2013-02-24 13:49:00,40.6,40.1,29.59,ENE,66,3.0,8.0,98,0.16,,,0.66,Wunderground v.1.15,2013-02-24 18:49:00,
2013-02-24 13:54:00,40.6,40.1,29.59,NNE,19,4.0,9.0,98,0.17,,,0.67,Wunderground v.1.15,2013-02-24 18:54:00,
2013-02-24 14:00:00,40.4,39.9,29.59,NW,311,5.0,5.0,98,0.13,,,0.68,Wunderground v.1.15,2013-02-24 19:00:00,
2013-02-24 14:05:00,40.3,39.5,29.59,North,355,4.0,5.0,97,0.07,,,0.68,Wunderground v.1.15,2013-02-24 19:05:00,
2013-02-24 14:10:00,40.2,39.4,29.58,NW,309,4.0,4.0,97,0.04,,,0.68,Wunderground v.1.15,2013-02-24 19:10:00,
2013-02-24 14:16:00,40.0,39.2,29.59,SW,232,4.0,6.0,97,0.00,,,0.68,Wunderground v.1.15,2013-02-24 19:16:00,
2013-02-24 14:21:00,39.8,39.0,29.59,NNW,346,4.0,9.0,97,0.00,,,0.68,Wunderground v.1.15,2013-02-24 19:21:00,
2013-02-24 14:27:00,39.6,38.8,29.59,WNW,301,5.0,9.0,97,0.00,,,0.68,Wunderground v.1.15,2013-02-24 19:27:00,
2013-02-24 14:32:00,39.5,38.7,29.59,NW,306,4.0,13.0,97,0.00,,,0.68,Wunderground v.1.15,2013-02-24 19:32:00,
2013-02-24 14:38:00,39.4,38.6,29.60,NW,309,4.0,13.0,97,0.00,,,0.68,Wunderground v.1.15,2013-02-24 19:38:00,
2013-02-24 14:44:00,39.3,38.5,29.61,North,5,4.0,8.0,97,0.00,,,0.68,Wunderground v.1.15,2013-02-24 19:44:00,
2013-02-24 14:49:00,39.3,38.5,29.61,ENE,60,4.0,10.0,97,0.00,,,0.68,Wunderground v.1.15,2013-02-24 19:49:00,
2013-02-24 14:54:00,39.3,38.5,29.61,NNW,335,3.0,6.0,97,0.00,,,0.68,Wunderground v.1.15,2013-02-24 19:54:00,
2013-02-24 15:00:00,39.2,38.4,29.61,NNW,336,4.0,11.0,97,0.00,,,0.68,Wunderground v.1.15,2013-02-24 20:00:00,
2013-02-24 15:05:00,39.2,38.4,29.61,ENE,61,5.0,11.0,97,0.00,,,0.68,Wunderground v.1.15,2013-02-24 20:05:00,
2013-02-24 15:10:00,39.1,38.3,29.62,WNW,296,5.0,5.0,97,0.00,,,0.68,Wunderground v.1.15,2013-02-24 20:10:00,
2013-02-24 15:16:00,39.1,38.1,29.62,NNW,348,4.0,8.0,96,0.00,,,0.68,Wunderground v.1.15,2013-02-24 20:16:00,
2013-02-24 15:21:00,38.9,37.9,29.63,NW,306,4.0,5.0,96,0.00,,,0.68,Wunderground v.1.15,2013-02-24 20:21:00,
2013-02-24 15:27:00,38.7,37.7,29.63,NW,319,4.0,5.0,96,0.00,,,0.68,Wunderground v.1.15,2013-02-24 20:27:00,
2013-02-24 15:33:00,38.4,37.4,29.63,NNW,344,4.0,11.0,96,0.00,,,0.68,Wunderground v.1.15,2013-02-24 20:33:00,
2013-02-24 15:39:00,38.0,37.0,29.64,NE,36,4.0,11.0,96,0.00,,,0.68,Wunderground v.1.15,2013-02-24 20:39:00,
2013-02-24 15:44:00,37.7,36.7,29.64,WSW,240,4.0,6.0,96,0.00,,,0.68,Wunderground v.1.15,2013-02-24 20:44:00,
2013-02-24 15:50:00,37.2,36.2,29.64,NE,51,4.0,7.0,96,0.00,,,0.68,Wunderground v.1.15,2013-02-24 20:50:00,
2013-02-24 15:55:00,36.9,35.9,29.64,ENE,62,4.0,10.0,96,0.00,,,0.68,Wunderground v.1.15,2013-02-24 20:55:00,
2013-02-24 16:01:00,36.6,35.6,29.64,NW,304,4.0,6.0,96,0.00,,,0.68,Wunderground v.1.15,2013-02-24 21:01:00,
2013-02-24 16:06:00,36.5,35.5,29.64,NE,52,3.0,6.0,96,0.00,,,0.68,Wunderground v.1.15,2013-02-24 21:06:00,
2013-02-24 16:11:00,36.2,35.2,29.64,NW,316,3.0,4.0,96,0.00,,,0.68,Wunderground v.1.15,2013-02-24 21:11:00,
2013-02-24 16:17:00,36.1,35.1,29.65,North,350,3.0,8.0,96,0.00,,,0.69,Wunderground v.1.15,2013-02-24 21:17:00,
2013-02-24 16:22:00,35.7,34.7,29.65,NW,321,3.0,4.0,96,0.00,,,0.69,Wunderground v.1.15,2013-02-24 21:22:00,
2013-02-24 16:28:00,35.6,34.6,29.65,WNW,292,3.0,11.0,96,0.00,,,0.69,Wunderground v.1.15,2013-02-24 21:28:00,
2013-02-24 16:33:00,35.4,34.4,29.65,NNW,331,4.0,9.0,96,0.00,,,0.69,Wunderground v.1.15,2013-02-24 21:33:00,
2013-02-24 16:39:00,35.3,34.5,29.65,North,360,4.0,13.0,97,0.00,,,0.69,Wunderground v.1.15,2013-02-24 21:39:00,
2013-02-24 16:45:00,35.3,34.5,29.66,South,178,3.0,8.0,97,0.00,,,0.69,Wunderground v.1.15,2013-02-24 21:45:00,
2013-02-24 16:51:00,35.4,34.6,29.66,NNW,333,3.0,6.0,97,0.00,,,0.69,Wunderground v.1.15,2013-02-24 21:51:00,
2013-02-24 16:57:00,35.4,34.6,29.66,NE,42,3.0,6.0,97,0.00,,,0.69,Wunderground v.1.15,2013-02-24 21:57:00,
2013-02-24 17:03:00,35.4,34.6,29.66,North,351,3.0,9.0,97,0.00,,,0.70,Wunderground v.1.15,2013-02-24 22:03:00,
2013-02-24 17:09:00,35.4,34.6,29.66,NNW,333,2.0,9.0,97,0.00,,,0.70,Wunderground v.1.15,2013-02-24 22:09:00,
2013-02-24 17:15:00,35.4,34.6,29.67,WNW,284,2.0,4.0,97,0.00,,,0.70,Wunderground v.1.15,2013-02-24 22:15:00,
2013-02-24 17:20:00,35.3,34.5,29.67,NNW,338,3.0,4.0,97,0.00,,,0.70,Wunderground v.1.15,2013-02-24 22:20:00,
2013-02-24 17:26:00,35.2,34.4,29.67,NW,306,4.0,4.0,97,0.00,,,0.70,Wunderground v.1.15,2013-02-24 22:26:00,
2013-02-24 17:31:00,35.2,34.4,29.68,NNW,336,3.0,5.0,97,0.00,,,0.70,Wunderground v.1.15,2013-02-24 22:31:00,
2013-02-24 17:36:00,35.1,34.3,29.68,NE,49,3.0,5.0,97,0.00,,,0.70,Wunderground v.1.15,2013-02-24 22:36:00,
2013-02-24 17:42:00,35.0,34.2,29.68,ENE,71,2.0,6.0,97,0.00,,,0.70,Wunderground v.1.15,2013-02-24 22:42:00,
2013-02-24 17:47:00,35.0,34.2,29.69,WNW,299,3.0,6.0,97,0.00,,,0.70,Wunderground v.1.15,2013-02-24 22:47:00,
2013-02-24 17:53:00,34.9,34.1,29.69,NW,325,3.0,4.0,97,0.00,,,0.70,Wunderground v.1.15,2013-02-24 22:53:00,
2013-02-24 17:58:00,34.9,34.1,29.69,WNW,291,2.0,4.0,97,0.00,,,0.70,Wunderground v.1.15,2013-02-24 22:58:00,
2013-02-24 18:03:00,34.9,34.1,29.69,NNW,331,2.0,5.0,97,0.00,,,0.70,Wunderground v.1.15,2013-02-24 23:03:00,
2013-02-24 18:09:00,34.9,34.1,29.70,NE,41,2.0,5.0,97,0.00,,,0.70,Wunderground v.1.15,2013-02-24 23:09:00,
2013-02-24 18:14:00,34.9,34.1,29.70,WNW,298,2.0,8.0,97,0.00,,,0.70,Wunderground v.1.15,2013-02-24 23:14:00,
2013-02-24 18:20:00,34.9,34.1,29.71,WNW,290,3.0,3.0,97,0.00,,,0.70,Wunderground v.1.15,2013-02-24 23:20:00,
2013-02-24 18:26:00,34.8,34.0,29.72,NW,321,3.0,5.0,97,0.00,,,0.70,Wunderground v.1.15,2013-02-24 23:26:00,
2013-02-24 18:32:00,34.7,33.9,29.72,WNW,300,2.0,3.0,97,0.00,,,0.70,Wunderground v.1.15,2013-02-24 23:32:00,
2013-02-24 18:37:00,34.7,33.9,29.73,WNW,294,2.0,9.0,97,0.00,,,0.70,Wunderground v.1.15,2013-02-24 23:37:00,
2013-02-24 18:43:00,34.7,34.2,29.73,NNE,12,2.0,2.0,98,0.00,,,0.70,Wunderground v.1.15,2013-02-24 23:43:00,
2013-02-24 18:48:00,34.7,33.9,29.73,North,10,2.0,7.0,97,0.00,,,0.71,Wunderground v.1.15,2013-02-24 23:48:00,
2013-02-24 18:54:00,34.7,33.9,29.73,NW,309,2.0,2.0,97,0.00,,,0.71,Wunderground v.1.15,2013-02-24 23:54:00,
2013-02-24 18:59:00,34.7,33.9,29.73,NNW,343,1.0,3.0,97,0.00,,,0.71,Wunderground v.1.15,2013-02-24 23:59:00,
2013-02-24 19:05:00,34.7,33.9,29.74,NW,304,2.0,3.0,97,0.00,,,0.71,Wunderground v.1.15,2013-02-25 00:05:00,
2013-02-24 19:11:00,34.7,34.2,29.74,WNW,302,3.0,3.0,98,0.00,,,0.72,Wunderground v.1.15,2013-02-25 00:11:00,
2013-02-24 19:16:00,34.8,34.3,29.74,North,355,2.0,5.0,98,0.00,,,0.72,Wunderground v.1.15,2013-02-25 00:16:00,
2013-02-24 19:21:00,34.8,34.3,29.74,NNE,19,2.0,3.0,98,0.00,,,0.72,Wunderground v.1.15,2013-02-25 00:21:00,
2013-02-24 19:27:00,34.7,34.2,29.75,NNW,336,2.0,4.0,98,0.00,,,0.72,Wunderground v.1.15,2013-02-25 00:27:00,
2013-02-24 19:32:00,34.7,34.2,29.75,NW,313,2.0,4.0,98,0.00,,,0.72,Wunderground v.1.15,2013-02-25 00:32:00,
2013-02-24 19:38:00,34.6,34.1,29.75,NNW,327,3.0,9.0,98,0.00,,,0.72,Wunderground v.1.15,2013-02-25 00:38:00,
2013-02-24 19:44:00,34.6,34.1,29.75,NW,322,3.0,3.0,98,0.00,,,0.72,Wunderground v.1.15,2013-02-25 00:44:00,
2013-02-24 19:49:00,34.5,34.0,29.76,WNW,291,2.0,4.0,98,0.00,,,0.73,Wunderground v.1.15,2013-02-25 00:49:00,
2013-02-24 19:55:00,34.4,33.9,29.76,NW,319,2.0,6.0,98,0.00,,,0.73,Wunderground v.1.15,2013-02-25 00:55:00,
2013-02-24 20:00:00,34.3,33.8,29.77,NW,307,2.0,5.0,98,0.00,,,0.73,Wunderground v.1.15,2013-02-25 01:00:00,
2013-02-24 20:06:00,34.2,33.7,29.77,NW,311,1.0,5.0,98,0.00,,,0.73,Wunderground v.1.15,2013-02-25 01:06:00,
2013-02-24 20:12:00,34.1,33.3,29.77,NW,309,1.0,2.0,97,0.00,,,0.73,Wunderground v.1.15,2013-02-25 01:12:00,
2013-02-24 20:17:00,33.9,33.1,29.78,West,271,1.0,2.0,97,0.00,,,0.73,Wunderground v.1.15,2013-02-25 01:17:00,
2013-02-24 20:23:00,33.7,32.9,29.78,NW,314,1.0,2.0,97,0.00,,,0.73,Wunderground v.1.15,2013-02-25 01:23:00,
2013-02-24 20:28:00,33.5,32.7,29.78,West,263,1.0,4.0,97,0.00,,,0.73,Wunderground v.1.15,2013-02-25 01:28:00,
2013-02-24 20:33:00,33.4,32.6,29.78,WNW,300,1.0,3.0,97,0.00,,,0.73,Wunderground v.1.15,2013-02-25 01:33:00,
2013-02-24 20:39:00,33.3,32.5,29.78,NW,320,1.0,6.0,97,0.00,,,0.73,Wunderground v.1.15,2013-02-25 01:39:00,
2013-02-24 20:44:00,33.3,32.5,29.79,WNW,302,1.0,2.0,97,0.00,,,0.73,Wunderground v.1.15,2013-02-25 01:44:00,
2013-02-24 20:50:00,33.2,32.7,29.79,NW,319,1.0,1.0,98,0.00,,,0.73,Wunderground v.1.15,2013-02-25 01:50:00,
2013-02-24 20:55:00,33.2,32.7,29.79,WNW,285,1.0,3.0,98,0.00,,,0.73,Wunderground v.1.15,2013-02-25 01:55:00,
2013-02-24 21:00:00,33.1,32.6,29.79,West,275,2.0,3.0,98,0.00,,,0.73,Wunderground v.1.15,2013-02-25 02:00:00,
2013-02-24 21:06:00,33.1,32.6,29.80,WNW,288,2.0,4.0,98,0.00,,,0.73,Wunderground v.1.15,2013-02-25 02:06:00,
2013-02-24 21:12:00,33.0,32.5,29.80,WSW,252,2.0,2.0,98,0.00,,,0.73,Wunderground v.1.15,2013-02-25 02:12:00,
2013-02-24 21:17:00,33.0,32.5,29.80,West,275,1.0,4.0,98,0.00,,,0.73,Wunderground v.1.15,2013-02-25 02:17:00,
2013-02-24 21:23:00,33.0,32.5,29.80,NNE,29,3.0,5.0,98,0.00,,,0.73,Wunderground v.1.15,2013-02-25 02:23:00,
2013-02-24 21:28:00,33.0,32.5,29.80,WNW,297,3.0,5.0,98,0.00,,,0.73,Wunderground v.1.15,2013-02-25 02:28:00,
2013-02-24 21:33:00,33.0,32.5,29.80,WNW,286,2.0,5.0,98,0.00,,,0.73,Wunderground v.1.15,2013-02-25 02:33:00,
2013-02-24 21:39:00,33.0,32.5,29.80,North,10,2.0,5.0,98,0.00,,,0.73,Wunderground v.1.15,2013-02-25 02:39:00,
2013-02-24 21:44:00,33.0,32.5,29.81,West,273,2.0,4.0,98,0.00,,,0.73,Wunderground v.1.15,2013-02-25 02:44:00,
2013-02-24 21:50:00,33.0,32.5,29.81,NNW,330,1.0,4.0,98,0.00,,,0.73,Wunderground v.1.15,2013-02-25 02:50:00,
2013-02-24 21:55:00,32.9,32.4,29.81,West,276,1.0,4.0,98,0.00,,,0.73,Wunderground v.1.15,2013-02-25 02:55:00,
2013-02-24 22:00:00,32.9,32.4,29.81,West,279,1.0,1.0,98,0.00,,,0.73,Wunderground v.1.15,2013-02-25 03:00:00,
2013-02-24 22:05:00,32.9,32.4,29.81,West,280,2.0,4.0,98,0.00,,,0.73,Wunderground v.1.15,2013-02-25 03:05:00,
2013-02-24 22:11:00,32.9,32.4,29.82,West,268,1.0,1.0,98,0.00,,,0.73,Wunderground v.1.15,2013-02-25 03:11:00,
2013-02-24 22:16:00,32.9,32.4,29.82,West,260,1.0,2.0,98,0.00,,,0.73,Wunderground v.1.15,2013-02-25 03:16:00,
2013-02-24 22:22:00,32.8,32.3,29.82,NW,325,2.0,6.0,98,0.00,,,0.73,Wunderground v.1.15,2013-02-25 03:22:00,
2013-02-24 22:27:00,32.8,32.3,29.82,WNW,302,3.0,6.0,98,0.00,,,0.73,Wunderground v.1.15,2013-02-25 03:27:00,
2013-02-24 22:33:00,32.8,32.3,29.82,NW,326,3.0,6.0,98,0.00,,,0.73,Wunderground v.1.15,2013-02-25 03:33:00,
2013-02-24 22:39:00,32.8,32.3,29.82,NW,321,1.0,6.0,98,0.00,,,0.73,Wunderground v.1.15,2013-02-25 03:39:00,
2013-02-24 22:45:00,32.8,32.3,29.83,WNW,300,1.0,3.0,98,0.00,,,0.73,Wunderground v.1.15,2013-02-25 03:45:00,
2013-02-24 22:51:00,32.7,32.2,29.83,NW,323,2.0,2.0,98,0.00,,,0.73,Wunderground v.1.15,2013-02-25 03:51:00,
2013-02-24 22:56:00,32.7,32.2,29.83,NW,313,2.0,3.0,98,0.00,,,0.73,Wunderground v.1.15,2013-02-25 03:56:00,
2013-02-24 23:02:00,32.7,32.2,29.83,NW,311,1.0,5.0,98,0.00,,,0.73,Wunderground v.1.15,2013-02-25 04:02:00,
2013-02-24 23:08:00,32.7,32.2,29.83,WNW,287,2.0,5.0,98,0.00,,,0.73,Wunderground v.1.15,2013-02-25 04:08:00,
2013-02-24 23:13:00,32.7,32.2,29.83,NW,321,2.0,5.0,98,0.00,,,0.73,Wunderground v.1.15,2013-02-25 04:13:00,
2013-02-24 23:19:00,32.7,32.2,29.84,NNW,329,1.0,5.0,98,0.00,,,0.73,Wunderground v.1.15,2013-02-25 04:19:00,
2013-02-24 23:24:00,32.6,32.1,29.84,NW,311,1.0,8.0,98,0.00,,,0.73,Wunderground v.1.15,2013-02-25 04:24:00,
2013-02-24 23:30:00,32.6,32.1,29.84,West,260,2.0,4.0,98,0.00,,,0.73,Wunderground v.1.15,2013-02-25 04:30:00,
2013-02-24 23:35:00,32.6,32.1,29.84,NW,306,2.0,4.0,98,0.00,,,0.73,Wunderground v.1.15,2013-02-25 04:35:00,
2013-02-24 23:40:00,32.6,32.1,29.84,WNW,301,1.0,2.0,98,0.00,,,0.73,Wunderground v.1.15,2013-02-25 04:40:00,
2013-02-24 23:46:00,32.6,32.1,29.84,WNW,295,1.0,2.0,98,0.00,,,0.74,Wunderground v.1.15,2013-02-25 04:46:00,
2013-02-24 23:51:00,32.6,32.1,29.85,NNW,329,1.0,3.0,98,0.00,,,0.74,Wunderground v.1.15,2013-02-25 04:51:00,
2013-02-24 23:57:00,32.6,32.1,29.85,NW,321,2.0,4.0,98,0.00,,,0.74,Wunderground v.1.15,2013-02-25 04:57:00,